User: anonymous   Login
Location: Unspecified
(0.0000°N, 0.0000°E)
Time: 00:49:19
(UTC+00:00)
Language:

TBA - TO BE ASSIGNED - Orbit

View from above orbital plane
View from above orbital plane
View from above satellite
View from above satellite

Ground track
Ground track

The orbit is defined by the following mean orbital elements,

1 68091U          26145.40182124 +.00000000 +00000-0 +37063-3 0 00009
2 68091  53.1581 181.4388 0001265  72.6102 287.5039 15.34403079    04
Epoch (UTC): 25 May 2026 09:38:37
Eccentricity: 0.0001265
inclination: 53.1581°
perigee height: 462 km
apogee height: 464 km
right ascension of ascending node: 181.4388°
argument of perigee: 72.6102°
revolutions per day: 15.34403079
mean anomaly at epoch: 287.5039°

The dashed part of the orbit path shows where the satellite is in the earth's shadow,  

DLR